Weather History for Isle Of Man, United Kingdom

Change the Weather History Date:

Wednesday, November 13, 2013

  Actual Average Record
Temperature  
Mean Temperature 48 °F -  
Max Temperature 52 °F 48 °F 55 °F (2006)
Min Temperature 45 °F 41 °F 35 °F (2001)
Degree Days  
Heating Degree Days 16    
Moisture  
Dew Point 42 °F    
Average Humidity 74    
Maximum Humidity 88    
Minimum Humidity 53    
Precipitation  
Precipitation 0.04 in - - ()
Sea Level Pressure  
Sea Level Pressure 30.27 in    
Wind  
Wind Speed 16 mph ()    
Max Wind Speed 36 mph    
Max Gust Speed 47 mph    
Visibility 7.5 miles    
Events Rain    
Averages and records for this station are not official NWS values.
T = Trace of Precipitation, MM = Missing Value Source: Averaged Metar Reports

Daily Weather History Graph

Daily Weather History Graph

Search for Another Location

Airport:

Trip Planner

Search our weather history database for the weather conditions in past years. The results will help you decide how hot, cold, wet, or windy it might be!

Date:

Astronomy

Nov. 13, 2013 Rise Set
Actual Time 7:42 AM GMT 4:22 PM GMT
Civil Twilight 7:03 AM GMT 5:01 PM GMT
Nautical Twilight 6:20 AM GMT 5:44 PM GMT
Astronomical Twilight 5:38 AM GMT 6:26 PM GMT
Moon 2:34 PM GMT (11/13) 2:44 AM GMT (11/13)
Length of Visible Light 9h 57m
Length of Day
8h 39m
Waxing Gibbous, 83% of the Moon is Illuminated
Nov 13
Waxing Gibbous
Nov 17
Full
Nov 25
Last Quarter
Dec 3
New
Dec 9
First Quarter

Hourly Weather History & Observations

Time (GMT) Temp. Windchill Dew Point Humidity Pressure Visibility Wind Dir Wind Speed Gust Speed Precip Events Conditions
12:00 AM 46 °F - 42 °F 79% 30.50 in 19 mi West 9.2 mph - -   Scattered Clouds
12:50 AM 46.4 °F 41.1 °F 41.0 °F 81% 30.48 in 6.2 mi West 11.5 mph - N/A   Partly Cloudy
1:50 AM 46.4 °F 41.5 °F 42.8 °F 87% 30.48 in 6.2 mi West 10.4 mph - N/A   Partly Cloudy
2:50 AM 46.4 °F 40.7 °F 41.0 °F 81% 30.48 in 6.2 mi West 12.7 mph - N/A   Partly Cloudy
3:00 AM 47 °F - 42 °F 76% 30.48 in 25 mi West 12.7 mph - -   Scattered Clouds
4:20 AM 46.4 °F 42.4 °F 42.8 °F 87% 30.45 in 6.2 mi West 8.1 mph - N/A   Partly Cloudy
4:50 AM 46.4 °F 41.5 °F 42.8 °F 87% 30.45 in 6.2 mi West 10.4 mph - N/A   Partly Cloudy
5:20 AM 48.2 °F - 41.0 °F 76% 30.45 in 6.2 mi West 11.5 mph - N/A   Partly Cloudy
5:50 AM 46.4 °F 41.1 °F 41.0 °F 81% 30.42 in 6.2 mi West 11.5 mph - N/A   Partly Cloudy
6:00 AM 47 °F - 42 °F 76% 30.45 in 25 mi West 11.5 mph - -   Scattered Clouds
6:20 AM 46.4 °F 41.5 °F 42.8 °F 87% 30.42 in 6.2 mi West 10.4 mph - N/A   Partly Cloudy
6:50 AM 48.2 °F - 41.0 °F 76% 30.42 in 6.2 mi WSW 11.5 mph - N/A   Partly Cloudy
7:20 AM 48.2 °F - 42.8 °F 82% 30.42 in 6.2 mi West 11.5 mph - N/A   Scattered Clouds
7:50 AM 48.2 °F - 41.0 °F 76% 30.42 in 6.2 mi WSW 12.7 mph - N/A   Mostly Cloudy
8:20 AM 48.2 °F - 37.4 °F 66% 30.42 in 6.2 mi WSW 13.8 mph - N/A   Mostly Cloudy
8:50 AM 50.0 °F - 37.4 °F 62% 30.42 in 6.2 mi WSW 16.1 mph - N/A   Mostly Cloudy
9:00 AM 49 °F - 37 °F 53% 30.43 in 19 mi WSW 16.1 mph - -   Mostly Cloudy
9:20 AM 48.2 °F - 37.4 °F 66% 30.39 in 6.2 mi WSW 19.6 mph - N/A   Mostly Cloudy
9:50 AM 50.0 °F - 37.4 °F 62% 30.39 in 6.2 mi WSW 19.6 mph - N/A   Scattered Clouds
10:20 AM 50.0 °F - 37.4 °F 62% 30.39 in 6.2 mi SW 19.6 mph - N/A   Scattered Clouds
11:20 AM 50.0 °F - 39.2 °F 66% 30.36 in 6.2 mi SW 24.2 mph - N/A   Mostly Cloudy
11:50 AM 50.0 °F - 39.2 °F 66% 30.33 in 6.2 mi SW 21.9 mph - N/A   Scattered Clouds
12:00 PM 50 °F - 39 °F 56% 30.35 in 19 mi SW 21.9 mph - -   Partly Cloudy
12:20 PM 50.0 °F - 39.2 °F 66% 30.33 in 6.2 mi SW 24.2 mph - N/A   Scattered Clouds
12:50 PM 51.8 °F - 37.4 °F 58% 30.30 in 6.2 mi SW 26.5 mph - N/A   Scattered Clouds
1:20 PM 51.8 °F - 39.2 °F 62% 30.30 in 6.2 mi SW 26.5 mph - N/A   Scattered Clouds
1:50 PM 50.0 °F - 37.4 °F 62% 30.27 in 6.2 mi SW 27.6 mph - N/A   Mostly Cloudy
2:20 PM 50.0 °F - 39.2 °F 66% 30.24 in 6.2 mi SW 25.3 mph - N/A   Mostly Cloudy
2:50 PM 50.0 °F - 41.0 °F 71% 30.21 in 6.2 mi SSW 26.5 mph 38.0 mph N/A   Mostly Cloudy
3:00 PM 51 °F - 41 °F 59% 30.22 in 19 mi SSW 26.5 mph - -   Mostly Cloudy
3:20 PM 51.8 °F - 41.0 °F 67% 30.15 in 6.2 mi SSW 28.8 mph - N/A   Partly Cloudy
3:50 PM 51.8 °F - 42.8 °F 71% 30.15 in 6.2 mi SSW 31.1 mph - N/A   Partly Cloudy
4:20 PM 50.0 °F - 44.6 °F 82% 30.12 in 6.2 mi SSW 31.1 mph 42.6 mph N/A Rain Light Rain
4:50 PM 50.0 °F - 46.4 °F 87% 30.09 in 6.2 mi SW 34.5 mph - N/A Rain Light Rain
5:20 PM 51.8 °F - 46.4 °F 82% 30.09 in 6.2 mi SW 33.4 mph - N/A   Overcast
5:50 PM 51.8 °F - 46.4 °F 82% 30.06 in 5.0 mi SW 35.7 mph 47.2 mph N/A Rain Rain
6:00 PM 51 °F - 47 °F 81% 30.08 in 5 mi SW 35.7 mph - - Rain Rain
6:20 PM 51.8 °F - 48.2 °F 88% 30.04 in 6.2 mi SW 33.4 mph - N/A   Mostly Cloudy
6:50 PM 51.8 °F - 46.4 °F 82% 30.04 in 6.2 mi SW 28.8 mph 41.4 mph N/A   Mostly Cloudy
7:20 PM 51.8 °F - 46.4 °F 82% 30.04 in 6.2 mi WSW 26.5 mph - N/A   Mostly Cloudy
7:50 PM 51.8 °F - 46.4 °F 82% 30.04 in 6.2 mi WSW 27.6 mph - N/A   Partly Cloudy
8:20 PM 51.8 °F - 44.6 °F 76% 30.01 in 6.2 mi WSW 24.2 mph - N/A   Partly Cloudy
8:50 PM 51.8 °F - 44.6 °F 76% 30.01 in 6.2 mi West 24.2 mph - N/A   Partly Cloudy
9:00 PM 51 °F - 45 °F 72% 30.02 in 16 mi West 24.2 mph - -   Partly Cloudy
9:50 PM 51.8 °F - 44.6 °F 76% 30.01 in 6.2 mi WSW 25.3 mph 36.8 mph N/A   Mostly Cloudy
10:50 PM 50.0 °F - 44.6 °F 82% 30.01 in 6.2 mi West 18.4 mph - N/A   Scattered Clouds
11:50 PM 50.0 °F - 41.0 °F 71% 30.01 in 6.2 mi West 23.0 mph - N/A   Scattered Clouds